Pleasanton, CA

6:18 PM PST on December 03, 2016 (GMT -0800)
Livermore Municipal

Weather History for KLVK - October, 2011

Change the Weather History Date:

Sunday, October 30, 2011

  Actual Average Record
Temperature  
Mean Temperature 64 °F 59 °F  
Max Temperature 81 °F 72 °F 87 °F (1931)
Min Temperature 46 °F 46 °F 29 °F (1971)
Degree Days  
Heating Degree Days 1 6  
Month to date heating degree days 68 97  
Since 1 July heating degree days 79 121  
Cooling Degree Days 0 0  
Month to date cooling degree days 42 38  
Year to date cooling degree days 792 827  
Growing Degree Days 14 (Base 50)    
Moisture  
Dew Point 40 °F    
Average Humidity 45    
Maximum Humidity 66    
Minimum Humidity 23    
Precipitation  
Precipitation 0.00 in 0.05 in 0.72 in (1933)
Month to date precipitation 1.07 0.88  
Year to date precipitation 10.84 11.01  
Since 1 July precipitation 1.07  
Sea Level Pressure  
Sea Level Pressure 30.07 in    
Wind  
Wind Speed 2 mph (East)    
Max Wind Speed 13 mph    
Max Gust Speed 17 mph    
Visibility 10 miles    
Events      
T = Trace of Precipitation, MM = Missing Value Source: NWS Daily Summary

Daily Weather History Graph

Daily Weather History Graph

Search for Another Location

Airport or City:

Trip Planner

Search our weather history database for the weather conditions in past years. The results will help you decide how hot, cold, wet, or windy it might be!

Date:

Astronomy

Oct. 30, 2011 Rise Set
Actual Time 7:30 AM PDT 6:11 PM PDT
Civil Twilight 7:03 AM PDT 6:38 PM PDT
Nautical Twilight 6:32 AM PDT 7:08 PM PDT
Astronomical Twilight 6:01 AM PDT 7:39 PM PDT
Moon 11:50 AM PDT (10/30) 9:48 PM PDT (10/30)
Length of Visible Light 11h 34m
Length of Day
10h 40m
Waxing Crescent, 21% of the Moon is Illuminated
Oct 30
Waxing Crescent
Nov 2
First Quarter
Nov 10
Full
Nov 18
Last Quarter
Nov 24
New

Hourly Weather History & Observations

Time (PDT) Temp. Dew Point Humidity Pressure Visibility Wind Dir Wind Speed Gust Speed Precip Events Conditions
12:53 AM 52.0 °F 37.9 °F 59% 30.08 in 10.0 mi Calm Calm - N/A   Clear
1:53 AM 51.1 °F 37.0 °F 59% 30.08 in 10.0 mi Calm Calm - N/A   Clear
2:53 AM 52.0 °F 37.9 °F 59% 30.07 in 10.0 mi Calm Calm - N/A   Clear
3:53 AM 50.0 °F 39.0 °F 66% 30.08 in 10.0 mi Calm Calm - N/A   Clear
5:53 AM 48.0 °F 37.0 °F 66% 30.08 in 10.0 mi Calm Calm - N/A   Clear
6:53 AM 48.0 °F 37.0 °F 66% 30.09 in 10.0 mi Calm Calm - N/A   Clear
7:53 AM 48.0 °F 37.0 °F 66% 30.10 in 10.0 mi Calm Calm - N/A   Clear
8:53 AM 53.1 °F 39.0 °F 59% 30.12 in 10.0 mi Calm Calm - N/A   Clear
9:53 AM 59.0 °F 42.1 °F 53% 30.12 in 10.0 mi Calm Calm - N/A   Clear
10:53 AM 64.9 °F 43.0 °F 45% 30.11 in 10.0 mi Calm Calm - N/A   Clear
11:53 AM 73.0 °F 43.0 °F 34% 30.09 in 10.0 mi Calm Calm - N/A   Clear
12:53 PM 75.9 °F 43.0 °F 31% 30.07 in 10.0 mi Calm Calm - N/A   Clear
1:53 PM 80.1 °F 39.0 °F 23% 30.05 in 10.0 mi East 9.2 mph - N/A   Clear
2:53 PM 80.1 °F 39.9 °F 24% 30.03 in 10.0 mi East 10.4 mph - N/A   Clear
4:53 PM 78.1 °F 42.1 °F 28% 30.02 in 10.0 mi East 8.1 mph - N/A   Clear
5:53 PM 73.9 °F 43.0 °F 33% 30.02 in 10.0 mi ESE 4.6 mph - N/A   Clear
6:53 PM 70.0 °F 42.1 °F 36% 30.04 in 10.0 mi Calm Calm - N/A   Clear
7:53 PM 66.9 °F 43.0 °F 42% 30.05 in 10.0 mi Calm Calm - N/A   Clear
8:53 PM 60.1 °F 42.1 °F 51% 30.06 in 10.0 mi Calm Calm - N/A   Clear
9:53 PM 59.0 °F 41.0 °F 51% 30.06 in 10.0 mi ENE 3.5 mph - N/A   Clear
10:53 PM 57.0 °F 41.0 °F 55% 30.06 in 10.0 mi Calm Calm - N/A   Clear
11:53 PM 55.0 °F 39.9 °F 57% 30.06 in 10.0 mi Calm Calm - N/A   Clear